{"data":{"norad_id":64570,"epoch":"2026-05-25T04:37:37.481952Z","epoch_age_seconds":55427,"freshness":"FRESH","line1":"1 64570U 25135AU  26145.19279493  .00003017  00000+0  28555-3 0  9998","line2":"2 64570  97.7692 259.8463 0003062  59.5863 300.5659 14.94389807 50464","mean_motion":14.94389807,"eccentricity":0.0003062,"inclination_deg":97.7692,"raan_deg":259.8463,"arg_perigee_deg":59.5863,"mean_anomaly_deg":300.5659,"bstar":0.00028555,"rev_number":5046,"period_min":96.360400295477,"perigee_km":582.13548915347,"apogee_km":586.39926559418,"semimajor_km":6962.4043773738,"source":"CELESTRAK","updated_at":"2026-05-25T13:38:04.620513Z"}}